Location: Mohawk View
(42.7837°N, 73.7885°W)
Time: 02:07:34
(UTC+00:00)

Aureole 1 Rocket - Pass Details

Date: 17 June 2021
Orbit: 377 x 1372 km, 73.9° (Epoch: 02 August)

Event Time Altitude Azimuth Distance (km) Brightness Sun altitude
Rises 02:35:57 0° 339° (NNW) 3,312 8.4 -16.4°
Reaches altitude 10° 02:38:07 10° 340° (NNW) 2,512 7.4 -16.6°
Maximum altitude 02:44:02 89° 66° (ENE) 1,045 4.1 -17.2°
Enters shadow 02:48:36 25° 161° (SSE) 2,124 5.2 -17.6°
